STARLINK-1402, 45685

Orbit data source: Space-Track

STARLINK-1402, 45685 is a payload satellite owned by SpaceX/Seattle (US) in LEO that was launched on Thu, 04 Jun 2020 UTC via an FALCON 9 launch vehicle from the Air Force Eastern Test Range (AFETR). Payloads include a variety of satellites, spacecraft, and rockets equipped with specific instruments for various scientific and technological missions. These include communications satellites like Starlink; space stations such as the ISS; scientific satellites like the Hubble; Earth observation satellites from companies like Planet Labs, Umbra, and HawkEye 360; GPS; miniature CubeSats for education and research; and military/defense satellites.

Loading next visibility...
STARLINK-1402 details
Identifier
45685, 2020-035AE
Orbit
LEO
Last TLE update18 hours ago
Origin
Flag of USSpaceX/Seattle (US)
ManufacturerSpaceX/Seattle
MissionOperational Commercial Communications
Bus & MotorSTARLINK, Unknown motor
Mass260 kg wet, ~248 kg dry
Launch date (UTC)
2020-06-04 (5 years ago)
Launch vehicle
FALCON 9
Launch site
Air Force Eastern Test Range (AFETR)
Object type
Payload
Rocket body
Debris
Shape & HBRBox + 1 Pan, 8.86 m
Radar Cross Section13.562 m², Large (>1 m²)

Expand to show TLE details & history

TLE from 18 hours ago
0 STARLINK-1402
1 45685U 20035AE  24346.12654360  .00017532  00000-0  11939-2 0  9997
2 45685  53.0550 287.1635 0001653  97.7613 262.3563 15.06369877250598
Epoch: 2024-12-11T03:02Z
Definitive object data (Epoch: 2024-12-11T03:02:13.367Z)
Latitude-0.00006°
Longitude161.28206°
Altitude548.336 km
Speed7.589 km/s
True Right ascension19h 08m 39s
True Declination0° 00' 00"
Sunlit
Object was in daylight at TLE epoch
Visualization TLE readout
Latitude-11.68853°
Longitude-13.25453°
Altitude550.436 km
Speed7.587 km/s
Apparent Right ascension07h 38m 05s
Apparent Declination-25° 05' 14"
Sunlit
Object is in full shadow
Visualization observer readout
Local Sidereal Time19:48:35
Azimuth9.233° NNE
Elevation-75.009°
Doppler factor1
Orbital elements
Apogee altitude548.719 km
Perigee altitude546.43 km
Semi-major axis6,925.712 km
Eccentricity0.0001653
Inclination53.055°
RAAN287.1635°
Arg. of periapsis97.7613°
True anomaly262.33753°
Mean anomaly262.3563°
Eccentric anomaly262.34691°
Mean motion3.76571 °/min
BSTAR0.0011939
Orbital period95.6 mins
Loading maneuver chart data...

STARLINK-1402 Visibility forecast

Observer location: undefined°, undefined

Span
Click to sort rows by Start time (UTC) header in descending order
Start Az.
Max El. time (UTC)
Max El. Az.
Max El.
End time (UTC)
End Az.
7 mins2024-12-11 22:17:44.882Z198.003° SSW2024-12-11 22:20:44.882Z148.724° SSE30.05°2024-12-11 22:24:44.882Z66.577° ENE
5 mins2024-12-11 23:58:44.882Z279.293° WNW2024-12-12 00:00:44.882Z330.44° NNW29.791°2024-12-12 00:03:44.882Z31.547° NE
6 mins2024-12-12 04:59:44.882Z327.978° NNW2024-12-12 05:02:44.882Z40.393° NE32.876°2024-12-12 05:05:44.882Z99.663° ESE
5 mins2024-12-12 06:39:44.882Z277.426° WNW2024-12-12 06:41:44.882Z235.253° WSW26.252°2024-12-12 06:44:44.882Z174.245° S
|